sat.trackr.live / text

‹ back to catalog

LEMUR-2-EMARCHIA

NORAD 68492 · 2026-067CE

PAYLOAD ACTIVE UNKNOWN

§ Identity

Operator
Country
GER
Launch date
2026-03-30
Launch site
AFWTR
Launch vehicle
Mass (kg)
RCS (m²)

External: N2YO · Heavens-Above · Gunter

§ Orbital elements

Epoch: 2026-05-24T20:38:48.758784Z

Period
96.55 min
Inclination
97.7551°
Eccentricity
0.0005003
Mean motion
14.91409812 rev/d
Perigee alt
590.1 km
Apogee alt
597.0 km
Semi-major
6,971.7 km
B*
4.2413e-4
RAAN
103.4106°
Arg perigee
115.8352°
Mean anomaly
244.3383°
Rev number
824

§ Raw data

LEMUR-2-EMARCHIA1 68492U 26067CE  26144.86028656  .00004182  00000+0  42413-3 0  99992 68492  97.7551 103.4106 0005003 115.8352 244.3383 14.91409812  8243

JSON: /api/v1/satellites/68492 · /tle

For live sub-satellite position, see the globe view (requires WebGL).

§ Visibility from observer

Set your observer location to see the next 7 days of passes ≥ 10°. The values pass through the URL so the page stays shareable.

No JS? Fill the form by hand. The geolocation button needs JavaScript.